Simultaneous Nadir Overpasses (SNOs) Predictions

Prediction of SNOs over PacNW region [( 10.00, 139.50) to ( 22.70, 165.60)] between AQUA and NPP Satellites:

Table of predicted SNOs over PacNW region for the next 30.0 days since TLE Epoch: 9/28/2019
Index Date (AQUA) Time (AQUA) AQUA Lat,Lon Date (NPP) Time (NPP) NPP Lat,Lon Distance(km) Time Diff (sec)
1 10/05/2019 15:09:49 22.64, 159.83 10/05/2019 15:11:24 23.21, 157.23 274.06 95
2 10/08/2019 03:31:40 22.68, 147.50 10/08/2019 03:28:11 24.60, 145.28 310.57 209
3 10/13/2019 15:59:17 22.59, 147.46 10/13/2019 16:02:06 23.27, 144.54 307.72 169
4 10/21/2019 15:09:50 22.60, 159.82 10/21/2019 15:11:20 23.20, 157.20 276.28 90
5 10/24/2019 03:31:40 22.67, 147.50 10/24/2019 03:28:11 24.80, 145.20 333.30 209




NCC Satellite Simultaneous Nadir Overpasses (SNOs) Prediction Service
